Location: Palo Duro Canyon State Park
(34.9073°N, 101.6424°W)
Time: 06:48:35
(UTC-06:00)

ISS - Visible Passes

Search period start: 12 November 2019 00:00
Search period end: 22 November 2019 00:00
Orbit: 412 x 421 km, 51.6° (Epoch: 12 November)

Date Brightness Start Highest point End Pass type
(mag) Time Alt. Az. Time Alt. Az. Time Alt. Az.
12 Nov -3.0 05:46:15 36° N 05:47:09 47° NE 05:50:25 10° ESE visible
13 Nov -1.0 05:00:17 19° ENE 05:00:17 19° ENE 05:01:39 10° E visible
13 Nov -2.4 06:33:13 14° W 06:35:22 25° SW 06:38:10 10° S visible
14 Nov -3.3 05:47:20 47° SSW 05:47:20 47° SSW 05:50:20 10° SSE visible
15 Nov -0.8 05:01:31 14° SE 05:01:31 14° SE 05:02:06 10° SE visible
18 Nov -1.9 19:10:56 10° S 19:12:36 20° SSE 19:12:36 20° SSE visible
19 Nov -1.6 18:23:49 10° SSE 18:25:25 13° SE 18:26:39 11° ESE visible
19 Nov -0.9 19:58:34 10° WSW 19:59:35 18° WSW 19:59:35 18° WSW visible
20 Nov -4.0 19:10:01 10° SW 19:13:21 86° SE 19:13:32 78° ENE visible
21 Nov -3.2 18:21:46 10° SSW 18:24:56 42° SE 18:27:23 15° ENE visible
21 Nov -0.8 19:59:19 10° W 20:00:19 15° WNW 20:00:19 15° WNW visible
